Powrót do katalogu

DELTA 1 DEB

AktywnySSO
NORAD 21297·DEBRIS·🇺🇸 United States

Wystrzelony Jun 12, 1975 z Vandenberg Space Force Base

Loading…

Następne Przeloty (najbliższe 24 godziny)

TLE

ŚwieżeSource: Space-Track

Epoka: Sep 14, 2026, 09:48 UTC

1 21297U 75052AJ  26257.40840464  .00000043  00000-0  16751-3 0  9992
2 21297  99.6798  81.2669 0070914 110.7866   4.9476 13.33322070718081

Śledź DELTA 1 DEB w czasie rzeczywistym z AllMySat

Download on the App Store